North Andover, MA

12:13 PM EST on February 21, 2017 (GMT -0500)
Lawrence Municipal

Weather History for KLWM - April, 2012

Change the Weather History Date:

Thursday, April 19, 2012

  Actual Average Record
Temperature  
Mean Temperature 56 °F -  
Max Temperature 71 °F 58 °F 92 °F (1976)
Min Temperature 43 °F 38 °F 24 °F (1926)
Degree Days  
Heating Degree Days 8    
Growing Degree Days 6 (Base 50)    
Moisture  
Dew Point 39 °F    
Average Humidity 55    
Maximum Humidity 85    
Minimum Humidity 24    
Precipitation  
Precipitation 0.00 in - - ()
Sea Level Pressure  
Sea Level Pressure 30.06 in    
Wind  
Wind Speed 3 mph (SSW)    
Max Wind Speed 9 mph    
Max Gust Speed 16 mph    
Visibility 10 miles    
Events      
Averages and records for this station are not official NWS values.
T = Trace of Precipitation, MM = Missing Value Source: NWS Daily Summary

Daily Weather History Graph

Daily Weather History Graph

Search for Another Location

Airport or City:

Trip Planner

Search our weather history database for the weather conditions in past years. The results will help you decide how hot, cold, wet, or windy it might be!

Date:

Astronomy

Apr. 19, 2012 Rise Set
Actual Time 5:55 AM EDT 7:31 PM EDT
Civil Twilight 5:26 AM EDT 8:01 PM EDT
Nautical Twilight 4:50 AM EDT 8:37 PM EDT
Astronomical Twilight 4:11 AM EDT 9:16 PM EDT
Moon 4:49 AM EDT (4/19) 6:16 PM EDT (4/19)
Length of Visible Light 14h 35m
Length of Day
13h 35m
Waning Crescent, 2% of the Moon is Illuminated
Apr 19
Waning Crescent
Apr 21
New
Apr 29
First Quarter
May 5
Full
May 12
Last Quarter

Hourly Weather History & Observations

Time (EDT) Temp. Dew Point Humidity Pressure Visibility Wind Dir Wind Speed Gust Speed Precip Events Conditions
12:54 AM 48.0 °F 37.9 °F 68% 30.14 in 10.0 mi Calm Calm - N/A   Clear
1:54 AM 46.9 °F 37.9 °F 71% 30.12 in 10.0 mi Calm Calm - N/A   Clear
2:54 AM 45.0 °F 37.9 °F 76% 30.12 in 10.0 mi Calm Calm - N/A   Clear
3:54 AM 43.0 °F 37.0 °F 80% 30.12 in 10.0 mi Calm Calm - N/A   Clear
4:54 AM 44.1 °F 37.9 °F 79% 30.12 in 10.0 mi Calm Calm - N/A   Clear
5:54 AM 43.0 °F 37.9 °F 82% 30.11 in 10.0 mi Calm Calm - N/A   Clear
6:54 AM 44.1 °F 39.9 °F 85% 30.12 in 10.0 mi Calm Calm - N/A   Clear
7:54 AM 48.9 °F 42.1 °F 77% 30.12 in 10.0 mi SSW 3.5 mph - N/A   Clear
8:54 AM 54.0 °F 43.0 °F 66% 30.12 in 10.0 mi Calm Calm - N/A   Clear
9:54 AM 57.2 °F 39.2 °F 51% 30.11 in 10.0 mi West 4.6 mph - N/A   Clear
10:54 AM 61.0 °F 37.9 °F 42% 30.10 in 10.0 mi WNW 4.6 mph - N/A   Clear
11:54 AM 64.0 °F 35.1 °F 34% 30.07 in 10.0 mi WSW 5.8 mph - N/A   Clear
12:54 PM 66.0 °F 33.1 °F 29% 30.05 in 10.0 mi WSW 3.5 mph - N/A   Clear
1:54 PM 69.1 °F 32.0 °F 25% 30.04 in 10.0 mi North 8.1 mph - N/A   Clear
2:54 PM 70.0 °F 30.9 °F 24% 30.02 in 10.0 mi WSW 4.6 mph - N/A   Clear
3:54 PM 69.1 °F 39.9 °F 35% 30.00 in 10.0 mi ESE 9.2 mph - N/A   Clear
4:54 PM 66.9 °F 41.0 °F 39% 29.99 in 10.0 mi Variable 6.9 mph 16.1 mph N/A   Clear
5:54 PM 66.0 °F 41.0 °F 40% 29.98 in 10.0 mi ESE 8.1 mph - N/A   Clear
6:54 PM 64.4 °F 42.8 °F 45% 29.97 in 10.0 mi ESE 6.9 mph - N/A   Clear
7:54 PM 60.1 °F 43.0 °F 53% 29.98 in 10.0 mi SE 4.6 mph - N/A   Clear
8:54 PM 61.0 °F 43.0 °F 52% 30.00 in 10.0 mi South 4.6 mph - N/A   Clear
9:54 PM 60.1 °F 42.1 °F 51% 30.00 in 10.0 mi SSW 9.2 mph - N/A   Clear
10:54 PM 57.9 °F 43.0 °F 58% 30.01 in 10.0 mi SSW 6.9 mph - N/A   Clear
11:54 PM 55.0 °F 43.0 °F 64% 30.01 in 10.0 mi SSW 8.1 mph - N/A   Clear